| time (UTC) | temp F | wind direction | speed MPH | gust MPH | rain 1hr in | rain 24hr in | rain mn in | humidity % | barometer mb |
| 20260504050002 | 39 | 148 | 4.0 | 14.0 | 0.02 | 0.63 | 0.02 | 94 | 974.7 |
| 20260504044558 | 38 | 133 | 6.0 | 16.0 | 0.01 | 0.62 | 0.02 | 94 | 975.8 |
| 20260504043104 | 39 | 88 | 8.0 | 20.0 | 0.02 | 0.62 | 0.02 | 94 | 976.2 |
| 20260504041553 | 39 | 157 | 4.0 | 21.0 | 0.01 | 0.61 | 0.01 | 94 | 977.3 |
| 20260504040050 | 39 | 80 | 11.0 | 21.0 | 0.01 | 0.61 | 0.01 | 94 | 977.6 |
| 20260504034555 | 39 | 117 | 9.0 | 21.0 | 0.01 | 0.61 | 0.01 | 94 | 978.7 |
| 20260504033055 | 39 | 169 | 9.0 | 19.0 | 0.00 | 0.61 | 0.00 | 95 | 979.4 |
| 20260504031558 | 40 | 140 | 7.0 | 17.0 | 0.00 | 0.61 | 0.00 | 95 | 980.1 |
| 20260504030040 | 40 | 154 | 5.0 | 17.0 | 0.01 | 0.61 | 0.00 | 95 | 980.6 |
| 20260504024542 | 40 | 145 | 5.0 | 11.0 | 0.01 | 0.61 | 0.61 | 95 | 981.1 |
| 20260504023032 | 40 | 143 | 5.0 | 11.0 | 0.02 | 0.61 | 0.61 | 95 | 981.6 |
| 20260504021529 | 39 | 194 | 2.0 | 10.0 | 0.02 | 0.61 | 0.61 | 95 | 982.1 |
| 20260504020025 | 38 | 10 | 1.0 | 3.0 | 0.04 | 0.60 | 0.60 | 95 | 982.9 |
| 20260504014523 | 37 | 11 | 1.0 | 6.0 | 0.08 | 0.60 | 0.60 | 95 | 983.6 |
| 20260504013031 | 38 | 31 | 4.0 | 11.0 | 0.10 | 0.59 | 0.59 | 95 | 984.9 |
| 20260504011514 | 37 | 80 | 5.0 | 11.0 | 0.13 | 0.57 | 0.57 | 95 | 986.2 |
| 20260504010010 | 38 | 94 | 7.0 | 16.0 | 0.12 | 0.55 | 0.55 | 95 | 987.3 |
| 20260504004508 | 37 | 26 | 7.0 | 14.0 | 0.11 | 0.52 | 0.52 | 95 | 988.1 |
| 20260504003005 | 37 | 82 | 6.0 | 16.0 | 0.15 | 0.49 | 0.49 | 95 | 988.6 |
| 20260504001501 | 37 | 106 | 3.0 | 10.0 | 0.17 | 0.46 | 0.46 | 95 | 990.1 |
| 20260504000138 | 37 | 238 | 5.0 | 14.0 | 0.17 | 0.43 | 0.43 | 95 | 990.2 |
| 20260503234557 | 37 | 130 | 4.0 | 16.0 | 0.16 | 0.41 | 0.41 | 94 | 991.0 |
| 20260503233053 | 37 | 105 | 6.0 | 14.0 | 0.09 | 0.34 | 0.34 | 94 | 992.3 |
| 20260503231550 | 37 | 105 | 10.0 | 17.0 | 0.08 | 0.30 | 0.30 | 94 | 993.3 |
| 20260503230050 | 37 | 141 | 8.0 | 13.0 | 0.06 | 0.27 | 0.27 | 94 | 994.1 |
| 20260503224544 | 36 | 90 | 7.0 | 14.0 | 0.07 | 0.25 | 0.25 | 94 | 995.0 |
| 20260503223042 | 37 | 94 | 7.0 | 12.0 | 0.09 | 0.24 | 0.24 | 94 | 995.6 |
| 20260503221541 | 36 | 91 | 7.0 | 12.0 | 0.10 | 0.22 | 0.22 | 94 | 996.2 |
| 20260503220039 | 36 | 90 | 3.0 | 11.0 | 0.11 | 0.20 | 0.20 | 94 | 996.6 |
| 20260503214538 | 36 | 101 | 5.0 | 11.0 | 0.09 | 0.18 | 0.18 | 94 | 996.9 |
| 20260503213138 | 36 | 66 | 3.0 | 12.0 | 0.06 | 0.15 | 0.15 | 94 | 996.4 |
| 20260503211534 | 35 | 92 | 7.0 | 15.0 | 0.03 | 0.12 | 0.12 | 94 | 997.8 |
| 20260503210031 | 35 | 99 | 7.0 | 15.0 | 0.02 | 0.09 | 0.09 | 93 | 998.8 |
| 20260503204528 | 35 | 54 | 6.0 | 15.0 | 0.01 | 0.09 | 0.09 | 93 | 998.9 |
| 20260503203032 | 35 | 66 | 5.0 | 16.0 | 0.02 | 0.09 | 0.09 | 93 | 999.9 |
| 20260503201524 | 35 | 47 | 6.0 | 16.0 | 0.02 | 0.09 | 0.09 | 93 | 1000.3 |
| 20260503200024 | 35 | 74 | 9.0 | 16.0 | 0.04 | 0.08 | 0.08 | 93 | 1001.2 |
| 20260503194519 | 35 | 146 | 3.0 | 12.0 | 0.05 | 0.07 | 0.07 | 92 | 1001.2 |
| 20260503193018 | 36 | 74 | 9.0 | 13.0 | 0.04 | 0.06 | 0.06 | 92 | 1003.0 |
| 20260503191514 | 36 | 309 | 3.0 | 8.0 | 0.04 | 0.06 | 0.06 | 92 | 1003.2 |
| 20260503190013 | 36 | 110 | 1.0 | 10.0 | 0.02 | 0.04 | 0.04 | 91 | 1004.5 |
| 20260503184517 | 37 | 182 | 2.0 | 6.0 | 0.00 | 0.02 | 0.02 | 91 | 1005.2 |
| 20260503183008 | 37 | 96 | 2.0 | 8.0 | 0.00 | 0.02 | 0.02 | 91 | 1006.3 |
| 20260503181606 | 38 | 92 | 5.0 | 9.0 | 0.00 | 0.02 | 0.02 | 91 | 1006.5 |
| 20260503180003 | 38 | 80 | 3.0 | 7.0 | 0.00 | 0.02 | 0.02 | 91 | 1007.3 |
| 20260503174503 | 39 | 51 | 3.0 | 7.0 | 0.00 | 0.02 | 0.02 | 90 | 1007.4 |
| 20260503173101 | 39 | 93 | 2.0 | 4.0 | 0.00 | 0.02 | 0.02 | 90 | 1008.0 |
| 20260503171613 | 40 | 88 | 3.0 | 6.0 | 0.00 | 0.02 | 0.02 | 89 | 1008.3 |
| 20260503170106 | 40 | 74 | 2.0 | 4.0 | 0.02 | 0.02 | 0.02 | 89 | 1008.3 |
| 20260503081546 | 33 | 196 | 0.0 | 0.0 | 0.00 | 0.01 | 0.00 | 94 | 1015.4 |
| 20260503071600 | 31 | 196 | 0.0 | 0.0 | 0.00 | 0.02 | 0.00 | 94 | 1015.4 |
| 20260503054542 | 31 | 196 | 0.0 | 1.0 | 0.00 | 0.44 | 0.00 | 93 | 1015.7 |